Location: Barrio de Canyet
(41.4665°N, 2.2381°E)
Time: 09:16:52
(UTC+00:00)

STARLINK-1188 - Pass Details

Date: 09 April 2020
Orbit: 378 x 381 km, 53.0° (Epoch: 04 June)

Event Time Altitude Azimuth Distance (km) Brightness Sun altitude
Rises 19:54:46 0° 312° (NW) 2,222 8.3 -16.6°
Reaches altitude 10° 19:56:53 10° 321° (NW) 1,373 6.7 -16.9°
Maximum altitude 19:59:48 39° 32° (NNE) 580 3.7 -17.4°
Enters shadow 20:00:07 37° 49° (NE) 595 3.6 -17.5°
